Terug naar catalogus

STARLINK-35389

ActiefCommunicatieVLEO
NORAD 66434·PAYLOAD·🇺🇸 United States

Gelanceerd Nov 11, 2025 vanaf Cape Canaveral Space Force Station

Loading…

Volgende Passages (komende 24 uur)

TLE

VersSource: CelesTrak SupGP

Epoch: Sep 14, 2026, 22:56 UTC

1 66434C 25259N   26257.95604167  .00029051  00000+0  10523-2 0  2572
2 66434  42.9997 285.1796 0001486 264.6423 341.2247 15.27561654    15

Volg STARLINK-35389 in realtime met AllMySat

Download on the App Store